Regional Weather Roundup
Issued by NWS State College, PA

Current Version | Previous Version | Text Only | Print | Product List | Glossary On
Versions: 1 2 3 4 5 6 7 8 9 10 11 12 13 14 15 16 17 18 19 20 21 22 23 24 25 26 27 28 29 30 31 32 33 34 35 36 37 38 39 40 41 42 43 44 45 46 47 48 49 50
000
ASUS41 KCTP 022310
RWRCTP

REGIONAL WEATHER ROUNDUP
NATIONAL WEATHER SERVICE STATE COLLEGE PA
700 PM EDT TUE SEP 02 2014

Note: "fair" indicates few or no clouds below 12,000 feet with no
significant weather and/or obstructions to visibility.

* = STATION THAT DOES NOT REPORT PRECIPITATION /E.G. RAIN...SNOW...ETC/
    THUNDER OR FOG.

PAZ002>004-007>009-013>016-020>023-029>032-030000-
WESTERN PENNSYLVANIA

CITY           SKY/WX    TMP DP  RH WIND       PRES   REMARKS
ERIE           MOCLDY    71  64  78 W7        29.89R
MEADVILLE      MOCLDY    70  64  81 W10G17    29.92R
FRANKLIN*      MOCLDY    70  64  83 W5        29.93S
NEW CASTLE     FAIR      75  67  76 W6        29.92R
BEAVER COUNTY  MOCLDY    75  66  73 W7        29.92R
BUTLER*        CLOUDY    73  66  78 NW6       29.93S
PITTSBURGH INT CLOUDY    76  68  76 NW9       29.91R
PITTSBURGH     MOCLDY    78  66  66 W10       29.90R
INDIANA*       MOCLDY    72  70  94 VRB7      29.94R
LATROBE        MOCLDY    75  73  94 SW9       29.91R
WASHINGTON CO* MOCLDY    75  64  69 W7        29.93S
$$

PAZ004>006-010>012-017>019-024>028-033>037-041-042-045-046-049>053-030000-
CENTRAL PENNSYLVANIA

CITY           SKY/WX    TMP DP  RH WIND       PRES   REMARKS
BRADFORD       MOCLDY    66  63  90 W3        29.91F
DUBOIS         CLOUDY    69  66  90 W8        29.93R
CLEARFIELD     CLOUDY    72  67  84 W12G21    29.91R
JOHNSTOWN      MOCLDY    73  65  75 SW15G25   29.94R
ALTOONA        CLOUDY    79  66  64 SW16G22   29.90R
STATE COLLEGE  RAIN      73  70  88 W12       29.90R
WILLIAMSPORT   MOCLDY    76  68  76 S17G39    29.79R
SELINSGROVE    LGT RAIN  76  73  91 NW7       29.84R FOG
FT INDIANTOWN  MOCLDY    78  73  85 SW10      29.85S
CAPITAL CITY   CLOUDY    74  68  81 VRB5      29.84F
HARRISBURG     CLOUDY    75  69  81 SW14      29.84S
YORK           CLOUDY    71  67  87 VRB3      29.86F
$$

PAZ038>040-043-044-047-048-054-055-060>062-067>071-030000-
EASTERN PENNSYLVANIA

CITY           SKY/WX    TMP DP  RH WIND       PRES   REMARKS
SCRANTON       MOCLDY    84  65  52 S5        29.82S
MOUNT POCONO   CLEAR     78  64  61 SW9       29.90S
ALLENTOWN      PTCLDY    87  67  51 SW12      29.83S
QUAKERTOWN*    PTCLDY    84  70  61 MISG      29.86S
READING        MOCLDY    82  71  69 SW5       29.83F
LANCASTER      LGT RAIN  73  67  81 SW8G20    29.85F
COATESVILLE    MOCLDY    81  72  74 SW3       29.87F
POTTSTOWN      LGT RAIN  84  70  62 S3        29.86S
BLUE BELL      CLEAR     88  72  58 SW6       29.84S
DOYLESTOWN     CLEAR     85  69  58 S6        29.84S
WILLOW GROVE   NOT AVBL
NORTH PHILA    PTCLDY    89  67  47 SW12      29.85S
PHILADELPHIA   MOCLDY    89  70  53 SW14      29.84F
$$



USA.gov is the U.S. government's official web portal to all federal, state and local government web resources and services.